978  
ASUS43 KGLD 310608  
RWRGLD  
 
GOODLAND FORECAST AREA HOURLY WEATHER ROUNDUP  
NATIONAL WEATHER SERVICE GOODLAND KS  
1200 AM MDT SUN MAY 31 2020  
   
..OFFICIAL OBSERVATIONS
 
 
 
CITY SKY/WX TMP DP RH WIND PRES REMARKS
 
GOODLAND KS MOCLDY 71 51 49 S18 30.04S  
HILL CITY KS MOCLDY 67 55 65 SE7 30.12S  
IMPERIAL NEB MOCLDY 62 54 74 E13 30.09F  
MCCOOK NEB MOCLDY 63 55 75 E14 30.09S  
AKRON CO CLOUDY 61 56 83 E12 30.14F  
BURLINGTON CO CLOUDY 64 57 78 CALM 30.07F  
LIMON CO CLOUDY 62 55 77 NE3 30.15F  

 
   
..UNOFFICIAL OBSERVATIONS
 
 
 
CITY SKY/WX TMP DP RH WIND PRES REMARKS
 
COLBY KS MOCLDY 70 54 56 SE21G30 30.08S  
SHARON SPRINGS N/A 74 49 41 S13G20 N/A  
YUMA CO FAIR 59 41 51 N9 30.11  

 
 
 
CLICK HERE TO GO TO PREVIOUS BULLETINS.

The Nexlab KS Page
The Nexlab CO Page
The Nexlab NE Page Main Text Page